Southern Pines, NC

11:06 PM EDT on October 15, 2019 (GMT -0400)
Moore County

Weather History for KSOP - August, 2019

Change the Weather History Date:

Saturday, August 17, 2019

  Actual Average Record
Temperature  
Mean Temperature 80 °F -  
Max Temperature 90 °F 85 °F 96 °F (2007)
Min Temperature 71 °F 66 °F 60 °F (2004)
Cooling Degree Days 16    
Growing Degree Days 30 (Base 50)    
Moisture  
Dew Point 72 °F    
Average Humidity 88    
Maximum Humidity 100    
Minimum Humidity 57    
Precipitation  
Precipitation 0.00 in - - ()
Sea Level Pressure  
Sea Level Pressure 30.03 in    
Wind  
Wind Speed 2 mph (ESE)    
Max Wind Speed 10 mph    
Max Gust Speed -    
Visibility 6 miles    
Events Fog    
Averages and records for this station are not official NWS values.
T = Trace of Precipitation, MM = Missing Value Source: NWS Daily Summary

Daily Weather History Graph

Daily Weather History Graph

Search for Another Location

Airport or City:

Astronomy

Aug. 17, 2019 Rise Set
Actual Time 6:38 AM EDT 8:04 PM EDT
Civil Twilight 6:11 AM EDT 8:30 PM EDT
Nautical Twilight 5:39 AM EDT 9:02 PM EDT
Astronomical Twilight 5:06 AM EDT 9:36 PM EDT
Moon 9:34 PM EDT (8/17) 8:23 AM EDT (8/17)
Length of Visible Light 14h 19m
Length of Day
13h 25m
Waning Gibbous, 96% of the Moon is Illuminated
Aug 17
Waning Gibbous
Aug 23
Last Quarter
Aug 30
New
Sep 5
First Quarter
Sep 14
Full

Hourly Weather History & Observations

Time (EDT) Temp. Heat Index Dew Point Humidity Pressure Visibility Wind Dir Wind Speed Gust Speed Precip Events Conditions
12:52 AM 73.4 °F - 71.6 °F 94% 30.01 in 10.0 mi Calm Calm - N/A   Mostly Cloudy
12:56 AM 73.0 °F - 72.0 °F 96% 30.04 in 10.0 mi Calm Calm - N/A   Mostly Cloudy
1:11 AM 73.4 °F - 73.4 °F 100% 30.01 in 10.0 mi SSE 8.1 mph - N/A   Overcast
1:41 AM 73.4 °F - 73.4 °F 100% 30.00 in 10.0 mi South 4.6 mph - N/A   Partly Cloudy
1:56 AM 73.0 °F - 72.0 °F 96% 30.02 in 9.0 mi Calm Calm - N/A   Clear
2:53 AM 71.6 °F - 71.6 °F 100% 30.00 in 2.5 mi Calm Calm - N/A   Scattered Clouds
2:56 AM 72.0 °F - 71.1 °F 97% 30.03 in 1.0 mi Calm Calm - N/A   Mostly Cloudy
2:58 AM 71.6 °F - 71.6 °F 100% 30.00 in 0.5 mi Calm Calm - N/A Fog Fog
3:06 AM 71.6 °F - 71.6 °F 100% 30.01 in 0.5 mi Calm Calm - N/A Fog Fog
3:10 AM 71.6 °F - 71.6 °F 100% 30.00 in 1.0 mi Calm Calm - N/A   Mostly Cloudy
3:12 AM 71.6 °F - 71.6 °F 100% 30.00 in 2.5 mi NE 3.5 mph - N/A   Mostly Cloudy
3:17 AM 71.6 °F - 71.6 °F 100% 30.00 in 4.0 mi Calm Calm - N/A   Scattered Clouds
3:54 AM 71.6 °F - 71.6 °F 100% 30.01 in 2.0 mi Calm Calm - N/A   Mostly Cloudy
3:56 AM 71.1 °F - 70.0 °F 96% 30.03 in 1.2 mi Calm Calm - N/A   Mostly Cloudy
3:58 AM 71.6 °F - 69.8 °F 94% 30.00 in 0.8 mi Calm Calm - N/A   Mostly Cloudy
4:14 AM 71.6 °F - 71.6 °F 100% 30.00 in 1.2 mi Calm Calm - N/A   Overcast
4:17 AM 71.6 °F - 71.6 °F 100% 30.00 in 3.0 mi Calm Calm - N/A   Overcast
4:33 AM 71.6 °F - 71.6 °F 100% 30.01 in 1.8 mi ESE 4.6 mph - N/A   Overcast
4:53 AM 71.6 °F - 71.6 °F 100% 30.01 in 0.8 mi Calm Calm - N/A   Overcast
4:56 AM 72.0 °F - 72.0 °F 100% 30.04 in 0.8 mi East 3.5 mph - N/A   Overcast
5:09 AM 71.6 °F - 71.6 °F 100% 30.00 in 0.2 mi ESE 3.5 mph - N/A Fog Fog
5:56 AM 72.0 °F - 72.0 °F 100% 30.04 in 0.2 mi Calm Calm - N/A Fog Fog
6:56 AM 72.0 °F - 72.0 °F 100% 30.04 in 0.2 mi Calm Calm - N/A Fog Fog
7:56 AM 73.0 °F - 72.0 °F 96% 30.05 in 0.2 mi Calm Calm - N/A Fog Fog
8:08 AM 73.4 °F - 71.6 °F 94% 30.03 in 0.8 mi Calm Calm - N/A   Overcast
8:17 AM 73.4 °F - 71.6 °F 94% 30.03 in 0.2 mi Calm Calm - N/A Fog Fog
8:27 AM 73.4 °F - 73.4 °F 100% 30.03 in 0.8 mi Calm Calm - N/A   Overcast
8:30 AM 73.4 °F - 73.4 °F 100% 30.03 in 1.2 mi Calm Calm - N/A   Overcast
8:34 AM 73.4 °F - 73.4 °F 100% 30.03 in 3.0 mi Calm Calm - N/A   Overcast
8:56 AM 73.9 °F - 73.0 °F 97% 30.07 in 8.0 mi Calm Calm - N/A   Mostly Cloudy
9:32 AM 75.2 °F - 73.4 °F 94% 30.03 in 10.0 mi Calm Calm - N/A   Overcast
9:56 AM 77.0 °F - 73.0 °F 88% 30.06 in 10.0 mi Calm Calm - N/A   Overcast
10:31 AM 80.6 °F 85.4 °F 73.4 °F 79% 30.04 in 10.0 mi Variable 3.5 mph - N/A   Mostly Cloudy
10:53 AM 80.6 °F 85.4 °F 73.4 °F 79% 30.05 in 10.0 mi Calm Calm - N/A   Mostly Cloudy
10:56 AM 81.0 °F 86.2 °F 73.9 °F 79% 30.08 in 10.0 mi Calm Calm - N/A   Mostly Cloudy
11:16 AM 80.6 °F 85.4 °F 73.4 °F 79% 30.05 in 10.0 mi Calm Calm - N/A   Scattered Clouds
11:53 AM 84.2 °F 90.9 °F 73.4 °F 70% 30.05 in 10.0 mi Variable 5.8 mph - N/A   Mostly Cloudy
11:56 AM 84.9 °F 91.4 °F 73.0 °F 67% 30.08 in 10.0 mi ENE 5.8 mph - N/A   Mostly Cloudy
12:13 PM 87.8 °F 93.8 °F 71.6 °F 58% 30.05 in 10.0 mi Variable 3.5 mph - N/A   Scattered Clouds
12:56 PM 86.0 °F 93.0 °F 73.0 °F 65% 30.06 in 10.0 mi NNW 4.6 mph - N/A   Mostly Cloudy
1:09 PM 87.8 °F 95.6 °F 73.4 °F 62% 30.03 in 10.0 mi Variable 5.8 mph - N/A   Mostly Cloudy
1:56 PM 87.1 °F 94.5 °F 73.0 °F 63% 30.04 in 10.0 mi Variable 3.5 mph - N/A   Mostly Cloudy
2:56 PM 90.0 °F 97.9 °F 73.0 °F 57% 30.04 in 10.0 mi East 6.9 mph - N/A   Mostly Cloudy
3:34 PM 84.2 °F 90.9 °F 73.4 °F 70% 30.01 in 10.0 mi SSE 10.4 mph - N/A   Mostly Cloudy
3:56 PM 84.9 °F 90.7 °F 72.0 °F 65% 30.03 in 10.0 mi SE 9.2 mph - N/A   Clear
4:56 PM 86.0 °F 92.2 °F 72.0 °F 63% 30.02 in 10.0 mi Variable 6.9 mph - N/A   Clear
5:56 PM 84.9 °F 91.4 °F 73.0 °F 67% 30.01 in 10.0 mi Variable 4.6 mph - N/A   Clear
6:56 PM 82.0 °F 86.7 °F 72.0 °F 71% 30.04 in 10.0 mi East 6.9 mph - N/A   Clear
7:56 PM 80.1 °F 84.2 °F 73.0 °F 79% 30.06 in 10.0 mi East 3.5 mph - N/A   Clear
8:56 PM 77.0 °F - 72.0 °F 84% 30.05 in 10.0 mi ESE 5.8 mph - N/A   Clear
9:56 PM 73.9 °F - 71.1 °F 91% 30.06 in 10.0 mi East 5.8 mph - N/A   Clear
10:56 PM 73.0 °F - 71.1 °F 93% 30.06 in 10.0 mi Calm Calm - N/A   Partly Cloudy
11:16 PM 71.6 °F - 71.6 °F 100% 30.02 in 10.0 mi Calm Calm - N/A   Mostly Cloudy
11:56 PM 73.9 °F - 72.0 °F 93% 30.05 in 10.0 mi Calm Calm - N/A   Overcast